SCP
0 0 0 0 0 0 0 0 0 0 0 0 0 0 0 0 0 0 0 0 0 0 0 0 0 0 0 0 0 0 0 0 0 0 0 0 0 0 0 0 0 0 0 0
0 0 0 0 0 0 0 0 0 0 0 0 0 0 0 0 0 0 0 0 0 0 0 0 0 0 0 0 0 0 0 0 0 0 0 0 0 0 0 0 0 0 0 0
0 0 0 0 0 0 0 0 0 0 0 0 0 0 0 0 0 0 0 0 0 0 0 0 0 0 0 0 0 0 0 0 0 0 0 0 0 0 0 0 0 0 0 0
0 0 0 0 0 0 0 0 0 0 0 0 0 0 0 0 0 0 0 0 0 0 0 0 0 0 0 0 0 0 0 0 0 0 0 0 0 0 0 0 0 0 0 0
0 0 0 0 0 0 0 0 0 0 0 0 0 0 0 0 0 0 0 0 0 0 0 0 0 0 0 0 0 0 0 0 0 0 0 0 0 0 0 0 0 0 0 0
0 0 0 0 0 0 0 0 0 0 0 0 0 0 0 0 0 0 0 0 -0 0 0 0 0 0 0 0 0 0 0 0 0 0 0 0 0 0 0 0 0 0 0 0
0 0 0 0 0 0 0 0 0 0 0 0 0 0 0 0 0 0 0 0 0 0 0 0 0 0 0 0 0 0 0 0 0 0 0 0 0 0 0 0 0 0 0 0
0 0 0 0 0 0 0 0 0 0 0 0 0 0 0 0 0 0 0 0 0 0 0 0 0 0 0 0 0 0 0 0 0 0 0 0 0 0 0 0 0 0 0 0
0 0 0 0 0 0 0 0 0 0 0 0 0 0 0 0 0 0 0 0 0 0 0 0 0 0 0 0 0 0 0 0 0 0 0 0 0 0 0 0 0 0 0 0
0 0 0 0 0 0 0 0 0 0 0 0 0 0 0 0 0 0 0 0 0 0 0 0 0 0 0 0 0 0 0 0 0 0 0 0 0 0 0 0 0 0 0 0
0 0 0 0 0 0 0 0 0 0 0 0 0 0 0 0 0 0 0 0 0 0 0 0 0 0 0 0 0 0 0 0 0 0 0 0 0 0 0 0 0 0 0 0
0 0 0 0 0 0 0 0 0 0 0 0 0 0 0 0 0 0 0 0 0 0 0 0 0 0 0 0 0 0 0 0 0 0 0 0 0 0 0 0 0 0 0 0
0 0 0 0 0 0 0 0 0 0 0 0 0 0 0 0 0 0 0 0 0 0 0 0 0 0 0 0 0 0 0 0 0 0 0 0 0 0 0 0 0 0 0 0
0 0 0 0 0 0 0 0 0 0 0 0 0 0 0 0 0 0 0 0 0 0 0 0 0 0 0 0 0 0 0 0 0 0 0 0 0 0 0 0 0 0 0 0
0 0 0 0 0 0 0 0 0 0 0 0 0 0 0 0 0 0 0 0 0 0 0 0 0 0 0 0 0 0 0 0 0 0 0 0 0 0 0 0 0 0 0 0
0 0 0 0 0 0 0 0 0 0 0 0 0 0 0 0 0 0 0 0 0 0 0 0 0 0 0 0 0 0 0 0 0 0 0 0 0 0 0 0 0 0 0 0
0 0 0 0 0 0 0 0 0 0 0 0 0 0 0 0 0 0 0 0 0 0 0 0 0 0 0 0 0 0 0 0 0 0 0 0 0 0 0 0 0 0 0 0
0 0 0 0 0 0 0 0 0 0 0 0 0 0 0 0 0 0 0 0 0 0 0 0 0 0 0 0 0 0 0 0 0 0 0 0 0 0 0 0 0 0 0 0
0 0 0 0 0 0 0 0 0 0 0 0 0 0 0 0 0 0 0 0 0 0 0 0 0 0 0 0 0 0 0 0 0 0 0 0 0 0 0 0 0 0 0 0
0 0 0 0 0 0 0 0 0 0 0 0 0 0 0 0 0 0 0 0 0 0 0 0 0 0 0 0 0 0 0 0 0 0 0 0 0 0 0 0 0 0 0 0
0 0 0 0 0 0 0 0 0 0 0 0 0 0 0 0 0 0 0 0 0 0 0 0 0 0 0 0 0 0 0 0 0 0 0 0 0 0 0 0 0 0 0 0
0 0 0 0 0 0 0 0 0 0 0 0 0 0 0 0 0 0 0 0 0 0 0 0 0 0 0 0 0 0 0 0 0 0 0 0 0 0 0 0 0 0 0 0
0 0 0 0 0 0 0 0 0 0 0 0 0 0 0 0 0 0 0 0 0 0 0 0 0 0 0 -0 -0 0 0 0 0 0 0 0 0 0 0 0 0 0 0 0
0 0 0 0 0 0 0 0 0 0 0 0 0 0 0 0 0 0 0 0 0 0 0 0 0 0 0 0 0 0 0 0 0 0 0 0 0 0 0 0 0 0 0 0
0 0 0 0 0 0 0 0 0 0 0 0 0 0 0 0 0 0 0 0 0 0 0 0 0 0 0 0 0 0 0 0 0 0 0 0 0 0 0 0 0 0 0 0
0 0 0 0 0 0 0 0 0 0 0 0 0 0 0 0 0 0 0 0 0 0 0 0 0 0 0 0 0 0 0 0 0 0 0 0 0 0 0 0 0 0 0 0
Wind_Speed
4 4 6 7 8 8 6 6 7 4 2 4 9 11 10 7 6 6 6 5 5 5 4 4 5 4 4 4 4 4 3 4 3 3 3 3 3 2 2 2 2 2 2 2
4 7 7 5 5 6 7 8 8 5 1 3 7 11 9 8 7 6 5 4 4 4 4 4 4 4 4 4 3 3 3 4 4 3 3 2 2 2 2 2 3 3 3 3
6 2 3 5 5 6 7 7 6 5 4 5 5 9 7 5 4 4 4 3 3 3 4 4 4 4 4 4 4 4 3 3 4 4 2 2 1 1 2 3 3 3 3 3
5 4 4 4 5 6 6 3 4 4 3 4 3 6 4 4 4 4 3 3 3 3 3 4 4 4 4 4 3 3 3 3 3 4 4 4 4 4 4 3 3 3 3 3
3 1 3 5 4 4 2 2 3 3 4 4 4 5 6 5 4 3 3 3 2 2 3 3 4 4 3 3 3 3 3 3 3 3 3 4 3 2 1 2 3 3 3 3
3 2 2 2 2 2 1 1 2 2 2 5 6 6 6 3 4 3 3 2 2 2 2 2 3 3 2 2 2 3 3 3 3 3 3 3 3 3 2 3 3 3 2 3
3 4 3 1 2 3 3 2 0 1 3 7 4 5 7 2 2 3 2 2 2 2 3 2 2 2 2 2 2 2 3 3 3 3 3 3 3 4 4 3 3 3 2 2
3 4 5 3 2 3 5 4 4 4 4 3 2 6 5 1 2 3 3 3 3 2 2 3 2 2 2 2 2 2 2 2 2 3 3 3 3 3 3 3 3 3 3 3
3 2 2 1 1 1 3 4 2 1 1 3 5 4 3 2 2 2 2 3 3 2 2 2 2 2 1 1 1 2 2 1 2 2 3 3 3 3 3 3 2 2 2 2
1 1 2 2 1 2 2 1 2 3 3 4 5 5 4 4 3 2 2 2 2 2 2 2 2 2 1 1 1 1 0 1 1 1 1 1 2 2 2 2 2 2 2 2
1 2 2 2 5 5 4 2 3 3 2 3 4 4 1 2 2 2 2 2 2 2 2 1 1 1 1 1 1 1 0 1 0 1 1 1 1 2 2 2 2 2 2 2
2 2 3 4 1 1 2 4 5 4 4 4 3 5 2 3 3 3 3 2 3 2 2 2 2 2 2 1 1 1 0 1 1 0 1 1 1 1 1 1 1 1 1 1
4 3 1 1 1 0 3 4 4 2 1 4 4 6 1 3 3 3 2 2 2 2 2 2 2 2 1 1 1 1 1 1 1 1 1 1 1 1 1 1 1 1 1 1
2 3 5 6 2 4 4 5 5 5 5 5 8 6 4 2 1 1 1 1 2 2 2 2 1 1 1 1 1 1 1 1 1 1 1 1 0 1 1 1 1 1 1 1
2 4 4 5 4 3 5 6 7 10 9 8 6 7 7 4 3 2 1 1 1 1 1 1 1 1 1 1 1 1 1 1 1 1 1 0 0 0 1 0 0 0 1 1
1 3 1 4 4 4 7 8 9 11 10 11 10 12 6 4 2 2 2 1 0 1 0 0 0 1 1 1 1 1 1 1 1 1 0 1 1 1 1 0 0 0 0 1
3 3 2 3 1 2 9 10 11 9 8 8 12 11 3 3 3 3 2 1 1 1 1 1 1 0 1 1 1 1 1 1 1 0 1 1 1 1 1 1 0 0 1 1
5 4 2 1 0 9 8 4 8 9 8 9 8 5 3 4 2 1 0 0 1 1 1 1 1 1 2 1 1 1 1 1 1 1 1 1 1 1 1 1 1 1 1 1
6 5 4 3 5 9 5 3 4 6 6 6 8 7 4 2 1 1 2 1 0 0 1 1 1 2 2 2 2 1 1 1 1 1 1 2 1 1 1 1 2 1 1 1
3 4 5 5 6 9 4 2 1 2 5 3 4 5 2 1 2 2 1 2 2 2 2 2 2 3 2 3 2 1 1 1 1 2 2 2 1 1 2 2 2 1 1 1
3 4 7 7 8 8 3 1 3 5 5 2 2 1 1 2 2 1 2 2 3 3 3 2 2 2 2 3 2 1 1 2 2 2 2 2 1 2 2 1 1 1 1 1
8 6 7 6 8 9 0 3 4 3 2 3 4 3 1 1 2 2 2 2 3 3 3 2 2 2 2 2 2 1 2 3 2 2 2 2 1 1 1 1 1 1 1 1
6 6 5 7 7 1 2 3 0 2 2 3 3 3 2 2 2 2 2 2 2 2 2 2 1 2 2 2 1 2 3 3 2 2 2 2 1 1 1 0 1 1 1 1
3 1 3 4 4 3 2 1 2 2 2 3 3 3 3 3 3 3 2 2 2 2 2 2 2 2 2 2 2 2 3 2 2 2 2 2 1 1 1 1 1 1 1 2
3 2 3 5 4 3 4 3 4 3 3 3 4 3 3 3 3 3 3 3 2 2 2 1 1 2 3 3 2 2 2 2 2 2 2 2 1 1 1 1 2 2 2 3
4 5 5 6 4 4 4 3 3 3 4 4 4 4 3 3 4 3 3 3 2 3 2 2 2 3 4 3 3 2 2 1 2 2 2 2 2 1 1 2 2 4 4 5
Wind_Direction
191 214 216 215 218 248 277 273 269 267 164 228 245 256 257 242 225 225 225 216 208 204 185 171 170 168 164 159 161 168 172 171 161 173 180 187 197 192 180 173 165 165 169 169
205 229 239 248 244 246 256 263 269 277 195 247 265 267 258 236 227 223 220 221 211 196 176 168 167 163 164 165 170 172 175 177 180 190 189 187 179 193 184 172 177 177 179 183
220 231 246 238 237 243 247 249 257 272 294 260 277 277 235 210 202 220 224 213 205 188 181 172 170 173 167 173 180 186 186 181 186 177 165 152 155 169 177 190 193 193 185 185
241 239 243 240 238 236 249 262 261 263 276 263 227 282 249 195 199 204 209 199 195 182 170 168 169 178 176 180 174 178 178 176 179 173 178 180 189 199 204 190 187 189 190 193
242 210 237 242 243 239 238 317 288 255 255 273 238 252 265 188 205 206 194 194 185 180 169 167 168 175 168 162 167 174 170 170 172 176 189 192 201 205 190 167 177 186 191 198
256 269 261 252 258 244 226 243 264 254 241 256 223 219 262 204 201 183 170 166 161 150 140 137 133 131 135 138 154 169 174 179 181 185 194 200 198 192 176 175 185 194 193 200
238 220 198 251 217 203 207 172 182 250 229 245 206 217 248 220 147 151 153 134 118 127 133 126 121 130 136 146 165 174 176 185 189 193 199 205 207 198 193 192 194 193 199 208
229 236 183 198 213 197 205 204 189 214 235 266 224 229 243 158 107 110 116 114 98 98 113 121 133 140 150 155 162 172 184 193 191 197 205 205 206 203 201 201 192 197 205 208
227 231 95 132 311 279 194 216 240 244 288 281 251 236 264 149 135 138 108 102 107 101 101 109 118 121 127 140 160 180 186 193 202 207 202 199 201 199 201 200 189 191 198 202
263 226 164 133 215 267 291 265 162 181 205 250 256 233 225 199 202 161 121 113 110 102 94 98 114 124 126 124 113 94 178 205 218 201 198 208 205 202 193 186 188 182 187 188
251 188 183 184 205 192 174 190 214 217 226 223 258 260 290 132 127 127 126 108 108 107 112 108 105 113 115 99 93 81 3 355 311 220 198 188 192 188 177 184 186 176 171 176
194 195 225 214 143 32 199 203 185 192 226 223 252 268 355 87 85 84 86 83 92 96 94 92 93 96 94 91 89 93 20 319 311 288 162 170 156 156 170 197 188 161 167 176
161 167 184 258 227 277 241 231 221 214 217 213 217 248 122 97 81 79 88 84 91 93 83 79 70 67 72 70 60 58 32 331 341 35 100 105 134 156 199 208 182 174 173 169
173 196 203 216 219 171 211 218 206 194 210 231 228 238 260 273 294 323 113 122 119 113 97 82 67 46 35 41 31 25 7 5 15 46 77 76 100 197 211 190 163 181 175 185
185 221 232 261 279 258 240 226 207 213 220 223 235 236 256 257 267 285 273 110 103 92 82 86 69 32 21 18 15 14 11 19 33 66 62 332 344 44 74 102 168 201 189 210
205 223 226 265 249 251 262 244 225 231 236 245 257 265 265 266 266 277 270 217 252 301 319 333 36 28 1 343 335 357 1 11 52 77 6 5 21 39 53 54 67 31 279 248
196 181 196 251 253 317 262 229 215 218 219 221 239 246 254 269 260 259 260 243 253 288 327 351 10 338 302 305 318 280 317 26 54 49 16 23 23 4 355 18 40 281 267 276
181 180 201 234 132 240 239 189 194 210 229 225 239 257 263 258 264 279 59 174 292 324 342 4 12 9 353 342 351 2 36 50 46 20 3 2 2 327 344 343 285 284 315 286
202 185 195 198 238 263 265 222 196 210 250 229 234 250 263 286 314 356 44 44 321 322 18 26 37 33 12 359 360 40 40 39 36 1 345 340 327 306 299 277 278 284 290 289
218 200 204 206 224 241 245 200 206 173 263 266 232 243 238 139 227 253 43 45 27 43 53 46 40 35 19 359 13 47 17 12 317 302 308 325 315 281 269 275 288 307 291 285
173 201 214 220 234 254 275 227 128 185 248 356 349 304 183 191 229 323 39 45 45 44 45 46 44 35 10 360 14 16 337 296 301 320 323 333 315 284 282 298 311 320 320 326
181 187 202 206 226 246 55 126 175 228 8 15 5 4 13 319 4 25 32 31 30 26 25 32 29 14 10 7 7 323 301 313 333 328 317 313 304 296 310 309 320 339 330 313
200 196 197 203 219 246 131 156 155 21 7 353 349 352 1 330 320 339 350 356 1 3 1 7 4 352 356 358 353 295 311 334 331 316 298 306 312 316 327 280 279 310 297 282
239 259 229 247 261 287 290 305 352 360 333 329 337 340 341 309 305 309 318 326 334 345 342 355 352 330 326 331 321 305 322 327 308 288 293 303 287 305 322 307 271 252 256 265
222 197 232 251 275 301 287 295 307 315 320 324 328 331 319 308 304 306 305 307 312 320 329 337 316 298 302 313 312 325 330 327 301 287 287 281 258 255 272 277 272 267 260 258
207 201 214 242 241 248 272 305 318 310 312 315 318 319 322 304 290 291 288 293 301 305 312 314 305 296 301 310 310 324 326 305 285 284 280 274 262 255 256 270 293 290 289 293